Flag for Saudi Arabia Weather past 2 weeks in Makkah, Saudi Arabia

Now
77 °F

Clear.


Feels Like: 79 °F
Forecast: 71 / 90 °F
Wind: No wind

Location: Mecca Airport

Current Time: Dec 18, 2014 at 1:03:00 AM

Latest Report: Dec 18, 2014 at 12:00 AM


Visibility: 10 mi

Pressure: 30.01 "Hg

Humidity: 74%

Dew point: 68 °F

Location of MakkahLocation

Historic Weather in Makkah — Graph

°F

Makkah temperature yesterday

Maximum temperature yesterday: 93 °F (at 2:00 PM)
Minimum temperature yesterday: 73 °F (at 3:00 AM)
Average temperature yesterday: 81 °F

Past Weeks' High & Low Weather Summary

 TemperatureHumidityPressure
High97 °F (Dec 3, 2:00 PM)94% (Dec 11, 8:00 AM)30.04 "Hg (Dec 11, 8:00 AM)
Low70 °F (Dec 9, 7:00 AM)32% (Dec 3, 2:00 PM)29.83 "Hg (Dec 7, 3:00 PM)
Average82 °F65%29.95 "Hg
* Reported Midnight between Dec 2 and Dec 3 — Midnight between Dec 17 and Dec 18, Makkah, Weather by CustomWeather, © 2014

Note: Actual official high and low records may vary slightly from our data, if they occured in-between our weather recording intervals... More about our weather records

Advertising

Makkah weather history for previous 24 hours

 ConditionsComfort  
Time TempWeatherWind HumidityBarometerVisibility
12:00 AM
Dec 18
77 °FClear.No wind74%30.01 "Hg10 mi
11:00 PM
Dec 17
79 °FClear.No wind70%30.04 "Hg10 mi
10:00 PM79 °FClear.No wind74%30.01 "Hg10 mi
9:00 PM81 °FClear.No wind62%30.01 "Hg10 mi
8:00 PM81 °FClear.2 mph62%30.01 "Hg10 mi
7:00 PM84 °FPassing clouds.2 mph58%30.01 "HgN/A
6:00 PM86 °FPassing clouds.5 mph59%29.98 "HgN/A
5:00 PM90 °FScattered clouds.5 mph46%29.95 "HgN/A
4:00 PM91 °FScattered clouds.2 mph52%29.92 "HgN/A
3:00 PM91 °FScattered clouds.2 mph52%29.95 "HgN/A
2:00 PM93 °FScattered clouds.2 mph44%29.95 "HgN/A
1:00 PM91 °FPassing clouds.No wind46%29.98 "HgN/A
12:00 PM90 °FSunny.No wind43%30.01 "Hg10 mi
11:00 AM84 °FSunny.2 mph48%30.04 "Hg10 mi
10:00 AM79 °FSunny.No wind58%30.04 "Hg10 mi
9:00 AM75 °FSunny.No wind65%30.01 "Hg10 mi
8:00 AM73 °FSunny.No wind61%30.01 "Hg10 mi
7:00 AM73 °FSunny.No wind61%29.98 "Hg10 mi
6:00 AM73 °FClear.No wind61%29.98 "Hg10 mi
5:00 AM73 °FClear.No wind69%29.95 "Hg10 mi
4:00 AM73 °FClear.No wind78%29.98 "Hg10 mi
3:00 AM73 °FClear.No wind74%29.98 "Hg10 mi
2:00 AM75 °FClear.No wind74%29.98 "Hg10 mi
1:00 AM75 °FClear.No wind74%29.98 "Hg10 mi
Weather by CustomWeather, © 2014

See weather overviewHow to use our weather pages